Regional Weather Roundup
Issued by NWS

Home | Current Version | Previous Version | Graphics & Text | Print | Product List | Glossary Off
Versions: 1 2 3 4 5 6 7 8 9 10 11 12 13 14 15 16 17 18 19 20 21 22 23 24 25 26 27 28 29 30 31 32 33 34 35 36 37 38 39 40 41 42 43 44 45 46 47 48 49 50

000
ASUS43 KMKX 201611
RWRWI

WISCONSIN REGIONAL WEATHER ROUNDUP
NATIONAL WEATHER SERVICE MILWAUKEE/SULLIVAN WI
1100 AM CDT THU JUL 20 2017

NOTE: "FAIR" INDICATES FEW OR NO CLOUDS BELOW 12,000 FEET WITH NO
SIGNIFICANT WEATHER AND/OR OBSTRUCTIONS TO VISIBILITY.

WIZ001-002-006>008-014>016-023>028-201700-
NORTHWEST WISCONSIN

CITY           SKY/WX    TMP DP  RH WIND       PRES   REMARKS
SUPERIOR ARPT  NOT AVBL
ASHLAND        MOSUNNY   79  69  71 W9        29.98R HX  81
HAYWARD        CLOUDY    76  66  71 SW7       30.02R
SIREN          MOSUNNY   76  66  72 NW3       30.03R
CUMBERLAND     CLOUDY    73  64  73 SW7       30.03R
RICE LAKE      CLOUDY    74  65  72 SW5       30.04R
CHETEK         CLOUDY    77  67  71 SW6       30.03R
LADYSMITH      CLOUDY    76  65  69 SW6       30.04S
EAU CLAIRE     CLOUDY    75  69  81 SW8       30.02R
MENOMONIE      CLOUDY    75  68  79 SW3       30.03R
NEW RICHMOND   PTSUNNY   75  69  83 NW6       30.04R
OSCEOLA        CLOUDY    76  74  92 SW3       30.06S
$$

WIZ003>005-009-010-017-018-201700-
NORTH CENTRAL WISCONSIN

CITY           SKY/WX    TMP DP  RH WIND       PRES   REMARKS
MANITOWISH WTR MOSUNNY   77  67  70 W8        30.01R
ARBOR VITAE    SUNNY     77  65  67 NW5       30.00S
WOODRUFF       SUNNY     77  65  67 NW5       30.00S
RHINELANDER    CLOUDY    75  65  70 SW7       30.02R
EAGLE RIVER    SUNNY     77  61  56 W8        30.00S
LAND O LAKES   SUNNY     78  61  57 NW6       30.00S
PHILLIPS       MOSUNNY   74  65  74 W5        30.01S
TOMAHAWK         N/A     74  63  69 SW6       30.02S
MEDFORD        CLOUDY    73  66  78 W7        30.03R
MERRILL        CLOUDY    74  66  76 W6        30.02S
$$

WIZ029-030-035-036-043>047-201700-
CENTRAL WISCONSIN

CITY           SKY/WX    TMP DP  RH WIND       PRES   REMARKS
WAUSAU         CLOUDY    75  65  70 W7        30.00S
MOSINEE        CLOUDY    73  66  78 SW8       30.03R
MARSHFIELD     CLOUDY    73  66  78 W6        30.03R
STEVENS POINT  CLOUDY    72  67  84 W7        30.03S
WAUPACA        PTSUNNY   80  70  70 W8        30.00S HX  83
WAUTOMA        MOSUNNY   79  70  74 W7        30.00F HX  82
WISC RAPIDS    MOSUNNY   76  68  76 W7        30.03S
CAMP DOUGLAS   MOSUNNY   79  70  73 CALM      30.01S HX  81
$$

WIZ011>013-019>022-031-037>040-048>050-201700-
NORTHEAST WISCONSIN

CITY           SKY/WX    TMP DP  RH WIND       PRES   REMARKS
ANTIGO         CLOUDY    73  64  74 W7        30.02S
SHAWANO        CLOUDY    78  67  67 W7        29.99R HX  80
OCONTO         CLOUDY    77  67  71 W8        29.97R
STURGEON BAY     N/A     75  68  78 W9        29.97S
GREEN BAY      MOSUNNY   79  70  74 W14       29.97F HX  82
MANITOWOC      SUNNY     80  66  62 W12       29.97F HX  82
APPLETON       PTSUNNY   75  64  69 W8        29.99S
CLINTONVILLE   MOSUNNY   77  64  65 W12       30.00S
OSHKOSH        MOSUNNY   78  68  71 W8        29.98F HX  80
$$

WIZ032>034-041-042-053>061-201700-
SOUTHWEST WISCONSIN

CITY           SKY/WX    TMP DP  RH WIND       PRES   REMARKS
LA CROSSE      SUNNY     82  71  69 N6        30.01R HX  86
SPARTA         MOSUNNY   77  69  77 NW6       30.02S
VIROQUA        SUNNY     76  72  85 NW5       30.04R
BOSCOBEL       SUNNY     81  70  69 W3        30.00R HX  84
PRAIRIE DU CHI CLOUDY    76  69  79 CALM      29.99S
PLATTEVILLE    CLOUDY    78  76  93 SW8       30.01R HX  81
$$

WIZ056-057-062-063-064-067-068-201700-
SOUTH CENTRAL WISCONSIN

CITY           SKY/WX    TMP DP  RH WIND       PRES   REMARKS
REEDSBURG      MOSUNNY   76  72  86 CALM      30.00S
BARABOO/DELLS  MOSUNNY   78  67  69 SW6       30.01R HX  80
LONE ROCK      MOSUNNY   79  71  76 W5        29.99F HX  82
MINERAL POINT  MOSUNNY   81  73  78 W5        30.01S HX  85
MADISON        PTSUNNY   77  70  79 W6        29.99S
MIDDLETON      MOSUNNY   79  72  78 W7        30.00F HX  82
WATERTOWN      CLOUDY    76  72  87 W8        29.99S
MONROE         MOSUNNY   79  72  78 SW14      29.99S HX  82
JANESVILLE     MOSUNNY   79  72  78 SW12G17   29.97S HX  82
$$

WIZ051-052-058>065-066-070>072-201700-
SOUTHEAST WISCONSIN

CITY           SKY/WX    TMP DP  RH WIND       PRES   REMARKS
MILWAUKEE      MOSUNNY   80  69  69 W13       29.97F HX  83
WAUKESHA       PTSUNNY   77  68  73 W10       29.99F
MILWAUKEE/TIMM MOSUNNY   79  66  65 W10       29.99S HX  81
RACINE         SUNNY     79  71  76 W8        29.98S HX  82
KENOSHA        CLOUDY    79  70  74 W13       29.97S HX  82
FOND DU LAC    PTSUNNY   78  67  68 SW7       29.99F HX  80
SHEBOYGAN      MOSUNNY   78  71  79 NW9       29.98F HX  80
WEST BEND      MOSUNNY   79  68  69 W9        29.99S HX  81
JUNEAU         CLOUDY    74  68  79 W7        30.01S
$$

LSZ147-162-201700-
LAKE SUPERIOR

STATION/POSITION TIME  TEMP    WIND        PRES    WAVE
                       AIR SEA DIR/SP/G            HT/PER
                 (UTC) (F)     (DEG/KT/KT) (MB)    (FT/S)
W MID LAKE BUOY  1550   51 47  260/ 10/ 12 1013.9R   0
DEVILS ISLAND    1600   63     230/ 16/ 18 1014.7R
SAXON HARBOR     1540   74     350/  2/  4 1014.6R
$$

LMZ867-665-643>646-201700-
LAKE MICHIGAN

STATION/POSITION TIME  TEMP    WIND        PRES    WAVE
                       AIR SEA DIR/SP/G            HT/PER
                 (UTC) (F)     (DEG/KT/KT) (MB)    (FT/S)
CHAMBERS ISLAND  1540   74     230/  4/  9 1013.5S
S GREEN BAY BUOY 1600   74 71  270/ 12/ 14 1014.5
N MID LAKE BUOY  1550   66 64  230/ 10/ 12 1014.3R   1/ 3
NORTHPORT PIER   1540   74     270/  5/ 10 1013.9R
KEWAUNEE LAKESHO 1542   79     280/  9/ 12 1014.2F
SHEBOYGAN LAKESH 1600   76     280/  8/ 11 1014.6F
PORT WASHINGTON  1530   72      50/  5/  6 1015.9S
ATWATER BUOY     1509   73 68  110/  4/  6 1015.1F
MILWAUKEE LAKESH 1550   77     250/ 10/ 12   N/A
S MID LAKE BUOY  1450   70 69  210/ 14/ 17 1014.2R   2/ 3
KENOSHA   LAKESH 1600   78     250/  9/ 14 1014.2
$$

TC  - TEMPERATURE IN CELSIUS
VSB - VISIBILITY IN STATUTE MILES
WCI - WIND CHILL INDEX
HX  - HEAT INDEX





USA.gov is the U.S. government's official web portal to all federal, state and local government web resources and services.